Time,TemperatureF,DewpointF,PressureIn,WindDirection,WindDirectionDegrees,WindSpeedMPH,WindSpeedGustMPH,Humidity,HourlyPrecipIn,Conditions,Clouds,dailyrainin,SoftwareType,DateUTC
2013-01-31 00:10:00,39.9,38.0,29.48,WSW,244,1.0,-999.0,92,-99.99,,,0.00,weatherlink.com 1.10,2013-01-31 05:10:00,
2013-01-31 00:25:00,39.5,38.0,29.47,WSW,241,6.0,-999.0,93,-99.99,,,0.00,weatherlink.com 1.10,2013-01-31 05:25:00,
2013-01-31 00:40:00,39.2,37.0,29.45,NW,314,5.0,-999.0,92,-99.99,,,0.00,weatherlink.com 1.10,2013-01-31 05:40:00,
2013-01-31 00:55:00,39.2,36.0,29.47,West,276,2.0,-999.0,89,-99.99,,,0.00,weatherlink.com 1.10,2013-01-31 05:55:00,
2013-01-31 01:10:00,39.2,36.0,29.50,WSW,255,9.0,-999.0,89,-99.99,,,0.00,weatherlink.com 1.10,2013-01-31 06:10:00,
2013-01-31 01:25:00,37.2,33.0,29.50,West,275,26.0,-999.0,86,-99.99,,,0.00,weatherlink.com 1.10,2013-01-31 06:25:00,
2013-01-31 01:40:00,35.6,32.0,29.50,NW,306,17.0,-999.0,87,-99.99,,,0.00,weatherlink.com 1.10,2013-01-31 06:40:00,
2013-01-31 01:56:00,34.7,32.0,29.51,West,264,11.0,-999.0,88,-99.99,,,0.00,weatherlink.com 1.10,2013-01-31 06:56:00,
2013-01-31 02:11:00,33.8,31.0,29.51,West,276,13.0,-999.0,90,-99.99,,,0.00,weatherlink.com 1.10,2013-01-31 07:11:00,
2013-01-31 02:26:00,33.2,31.0,29.51,West,269,16.0,-999.0,91,-99.99,,,0.00,weatherlink.com 1.10,2013-01-31 07:26:00,
2013-01-31 02:41:00,33.1,30.0,29.52,West,277,13.0,-999.0,89,-99.99,,,0.00,weatherlink.com 1.10,2013-01-31 07:41:00,
2013-01-31 02:56:00,32.9,30.0,29.53,West,270,10.0,-999.0,89,-99.99,,,0.00,weatherlink.com 1.10,2013-01-31 07:56:00,
2013-01-31 03:11:00,32.8,30.0,29.53,WNW,301,15.0,-999.0,89,-99.99,,,0.00,weatherlink.com 1.10,2013-01-31 08:11:00,
2013-01-31 03:26:00,31.8,28.0,29.54,West,274,18.0,-999.0,87,-99.99,,,0.00,weatherlink.com 1.10,2013-01-31 08:26:00,
2013-01-31 03:41:00,31.0,28.0,29.55,West,280,16.0,-999.0,89,-99.99,,,0.00,weatherlink.com 1.10,2013-01-31 08:41:00,
2013-01-31 03:56:00,30.4,27.0,29.57,WNW,295,10.0,-999.0,88,-99.99,,,0.00,weatherlink.com 1.10,2013-01-31 08:56:00,
2013-01-31 04:11:00,29.7,25.0,29.58,WNW,292,13.0,-999.0,84,-99.99,,,0.00,weatherlink.com 1.10,2013-01-31 09:11:00,
2013-01-31 04:26:00,29.0,25.0,29.60,WNW,296,15.0,-999.0,83,-99.99,,,0.00,weatherlink.com 1.10,2013-01-31 09:26:00,
2013-01-31 04:41:00,28.2,23.0,29.61,West,278,22.0,-999.0,80,-99.99,,,0.00,weatherlink.com 1.10,2013-01-31 09:41:00,
2013-01-31 04:56:00,27.3,20.0,29.62,West,264,18.0,-999.0,75,-99.99,,,0.00,weatherlink.com 1.10,2013-01-31 09:56:00,
2013-01-31 05:11:00,27.0,21.0,29.64,WNW,291,11.0,-999.0,77,-99.99,,,0.00,weatherlink.com 1.10,2013-01-31 10:11:00,
2013-01-31 05:26:00,26.6,20.0,29.66,WNW,292,12.0,-999.0,76,-99.99,,,0.00,weatherlink.com 1.10,2013-01-31 10:26:00,
2013-01-31 05:41:00,26.0,21.0,29.67,NW,313,15.0,-999.0,81,-99.99,,,0.00,weatherlink.com 1.10,2013-01-31 10:41:00,
2013-01-31 05:56:00,25.6,20.0,29.67,WNW,294,11.0,-999.0,80,-99.99,,,0.00,weatherlink.com 1.10,2013-01-31 10:56:00,
2013-01-31 06:11:00,25.0,21.0,29.68,WNW,296,14.0,-999.0,84,-99.99,,,0.00,weatherlink.com 1.10,2013-01-31 11:11:00,
2013-01-31 06:26:00,24.4,20.0,29.70,WNW,291,9.0,-999.0,84,-99.99,,,0.00,weatherlink.com 1.10,2013-01-31 11:26:00,
2013-01-31 06:41:00,24.1,20.0,29.72,NW,323,10.0,-999.0,83,-99.99,,,0.00,weatherlink.com 1.10,2013-01-31 11:41:00,
2013-01-31 06:56:00,23.9,18.0,29.74,NW,319,11.0,-999.0,78,-99.99,,,0.00,weatherlink.com 1.10,2013-01-31 11:56:00,
2013-01-31 07:11:00,23.8,18.0,29.74,NNW,332,8.0,-999.0,78,-99.99,,,0.00,weatherlink.com 1.10,2013-01-31 12:11:00,
2013-01-31 07:26:00,23.6,18.0,29.74,WNW,300,12.0,-999.0,78,-99.99,,,0.00,weatherlink.com 1.10,2013-01-31 12:26:00,
2013-01-31 07:41:00,23.5,17.0,29.76,WNW,298,10.0,-999.0,75,-99.99,,,0.00,weatherlink.com 1.10,2013-01-31 12:41:00,
2013-01-31 07:56:00,23.0,16.0,29.77,West,270,11.0,-999.0,74,-99.99,,,0.00,weatherlink.com 1.10,2013-01-31 12:56:00,
2013-01-31 08:11:00,23.2,17.0,29.78,WNW,302,16.0,-999.0,77,-99.99,,,0.00,weatherlink.com 1.10,2013-01-31 13:11:00,
2013-01-31 08:26:00,23.5,17.0,29.80,West,272,5.0,-999.0,76,-99.99,,,0.00,weatherlink.com 1.10,2013-01-31 13:26:00,
2013-01-31 08:42:00,23.5,16.0,29.86,WSW,258,12.0,-999.0,73,-99.99,,,0.00,weatherlink.com 1.10,2013-01-31 13:42:00,
2013-01-31 08:57:00,23.8,18.0,29.87,WNW,302,4.0,-999.0,77,-99.99,,,0.00,weatherlink.com 1.10,2013-01-31 13:57:00,
2013-01-31 09:12:00,23.9,18.0,29.86,SW,232,5.0,-999.0,78,-99.99,,,0.00,weatherlink.com 1.10,2013-01-31 14:12:00,
2013-01-31 09:27:00,23.9,19.0,29.88,NW,313,6.0,-999.0,82,-99.99,,,0.00,weatherlink.com 1.10,2013-01-31 14:27:00,
2013-01-31 09:42:00,23.6,18.0,29.89,West,263,10.0,-999.0,79,-99.99,,,0.00,weatherlink.com 1.10,2013-01-31 14:42:00,
2013-01-31 09:57:00,23.6,17.0,29.89,WNW,293,17.0,-999.0,75,-99.99,,,0.00,weatherlink.com 1.10,2013-01-31 14:57:00,
2013-01-31 10:12:00,23.9,16.0,29.89,WSW,250,2.0,-999.0,71,-99.99,,,0.00,weatherlink.com 1.10,2013-01-31 15:12:00,
2013-01-31 10:27:00,24.2,16.0,29.91,WNW,299,5.0,-999.0,70,-99.99,,,0.00,weatherlink.com 1.10,2013-01-31 15:27:00,
2013-01-31 10:42:00,24.5,17.0,29.91,WSW,248,4.0,-999.0,74,-99.99,,,0.00,weatherlink.com 1.10,2013-01-31 15:42:00,
2013-01-31 10:57:00,24.5,17.0,29.92,WSW,252,13.0,-999.0,73,-99.99,,,0.00,weatherlink.com 1.10,2013-01-31 15:57:00,
2013-01-31 11:12:00,24.7,16.0,29.92,WNW,282,23.0,-999.0,69,-99.99,,,0.00,weatherlink.com 1.10,2013-01-31 16:12:00,
2013-01-31 11:27:00,24.8,16.0,29.92,West,267,10.0,-999.0,68,-99.99,,,0.00,weatherlink.com 1.10,2013-01-31 16:27:00,
2013-01-31 11:42:00,25.1,16.0,29.92,WNW,284,15.0,-999.0,67,-99.99,,,0.00,weatherlink.com 1.10,2013-01-31 16:42:00,
2013-01-31 11:57:00,25.4,17.0,29.92,West,279,4.0,-999.0,69,-99.99,,,0.00,weatherlink.com 1.10,2013-01-31 16:57:00,
2013-01-31 12:12:00,25.8,17.0,29.92,West,277,6.0,-999.0,70,-99.99,,,0.00,weatherlink.com 1.10,2013-01-31 17:12:00,
2013-01-31 12:27:00,26.3,18.0,29.91,WNW,291,6.0,-999.0,70,-99.99,,,0.00,weatherlink.com 1.10,2013-01-31 17:27:00,
2013-01-31 12:42:00,26.6,19.0,29.92,NW,309,11.0,-999.0,73,-99.99,,,0.00,weatherlink.com 1.10,2013-01-31 17:42:00,
2013-01-31 12:57:00,26.1,18.0,29.92,West,274,17.0,-999.0,71,-99.99,,,0.00,weatherlink.com 1.10,2013-01-31 17:57:00,
2013-01-31 13:12:00,25.8,20.0,29.92,West,272,7.0,-999.0,77,-99.99,,,0.00,weatherlink.com 1.10,2013-01-31 18:12:00,
2013-01-31 13:27:00,25.3,19.0,29.93,West,280,19.0,-999.0,77,-99.99,,,0.00,weatherlink.com 1.10,2013-01-31 18:27:00,
2013-01-31 13:42:00,25.3,19.0,29.95,NNW,327,7.0,-999.0,78,-99.99,,,0.00,weatherlink.com 1.10,2013-01-31 18:42:00,
2013-01-31 14:12:00,24.4,20.0,29.96,WNW,285,12.0,-999.0,82,-99.99,,,0.00,weatherlink.com 1.10,2013-01-31 19:12:00,
2013-01-31 14:27:00,25.3,19.0,29.97,West,264,6.0,-999.0,76,-99.99,,,0.00,weatherlink.com 1.10,2013-01-31 19:27:00,
2013-01-31 14:42:00,25.1,19.0,29.96,NW,313,8.0,-999.0,79,-99.99,,,0.00,weatherlink.com 1.10,2013-01-31 19:42:00,
2013-01-31 14:57:00,24.4,20.0,29.98,WNW,284,4.0,-999.0,83,-99.99,,,0.00,weatherlink.com 1.10,2013-01-31 19:57:00,
2013-01-31 15:12:00,24.8,20.0,29.99,West,267,4.0,-999.0,83,-99.99,,,0.00,weatherlink.com 1.10,2013-01-31 20:12:00,
2013-01-31 15:27:00,25.3,19.0,30.00,WSW,237,5.0,-999.0,76,-99.99,,,0.00,weatherlink.com 1.10,2013-01-31 20:27:00,
2013-01-31 15:57:00,25.7,18.0,30.01,NW,313,13.0,-999.0,74,-99.99,,,0.00,weatherlink.com 1.10,2013-01-31 20:57:00,
2013-01-31 16:12:00,25.4,17.0,30.02,West,280,9.0,-999.0,70,-99.99,,,0.00,weatherlink.com 1.10,2013-01-31 21:12:00,
2013-01-31 16:27:00,26.0,15.0,30.03,West,275,12.0,-999.0,64,-99.99,,,0.00,weatherlink.com 1.10,2013-01-31 21:27:00,
2013-01-31 16:42:00,25.8,14.0,30.02,NW,306,11.0,-999.0,62,-99.99,,,0.00,weatherlink.com 1.10,2013-01-31 21:42:00,
2013-01-31 16:57:00,25.8,14.0,30.03,WNW,298,14.0,-999.0,61,-99.99,,,0.00,weatherlink.com 1.10,2013-01-31 21:57:00,
2013-01-31 17:12:00,26.0,14.0,30.02,WNW,288,9.0,-999.0,62,-99.99,,,0.00,weatherlink.com 1.10,2013-01-31 22:12:00,
2013-01-31 17:27:00,26.0,14.0,30.02,West,281,12.0,-999.0,62,-99.99,,,0.00,weatherlink.com 1.10,2013-01-31 22:27:00,
2013-01-31 17:42:00,26.0,15.0,30.03,West,269,11.0,-999.0,63,-99.99,,,0.00,weatherlink.com 1.10,2013-01-31 22:42:00,
2013-01-31 17:57:00,26.0,16.0,30.04,WNW,283,11.0,-999.0,65,-99.99,,,0.00,weatherlink.com 1.10,2013-01-31 22:57:00,
2013-01-31 18:12:00,25.8,16.0,30.04,WNW,290,5.0,-999.0,66,-99.99,,,0.00,weatherlink.com 1.10,2013-01-31 23:12:00,
2013-01-31 18:27:00,25.8,16.0,30.05,WNW,286,5.0,-999.0,67,-99.99,,,0.00,weatherlink.com 1.10,2013-01-31 23:27:00,
2013-01-31 18:42:00,25.8,16.0,30.05,WNW,295,14.0,-999.0,66,-99.99,,,0.00,weatherlink.com 1.10,2013-01-31 23:42:00,
2013-01-31 18:57:00,25.7,16.0,30.05,West,274,6.0,-999.0,67,-99.99,,,0.00,weatherlink.com 1.10,2013-01-31 23:57:00,
2013-01-31 19:12:00,26.0,16.0,30.06,WNW,290,11.0,-999.0,66,-99.99,,,0.00,weatherlink.com 1.10,2013-02-01 00:12:00,
2013-01-31 19:27:00,26.0,17.0,30.06,West,278,9.0,-999.0,68,-99.99,,,0.00,weatherlink.com 1.10,2013-02-01 00:27:00,
2013-01-31 19:42:00,25.8,17.0,30.07,WSW,256,10.0,-999.0,70,-99.99,,,0.00,weatherlink.com 1.10,2013-02-01 00:42:00,
2013-01-31 19:57:00,25.8,17.0,30.07,West,261,15.0,-999.0,70,-99.99,,,0.00,weatherlink.com 1.10,2013-02-01 00:57:00,
2013-01-31 20:12:00,26.0,17.0,30.07,WNW,292,5.0,-999.0,70,-99.99,,,0.00,weatherlink.com 1.10,2013-02-01 01:12:00,
2013-01-31 20:27:00,25.8,18.0,30.07,WNW,284,4.0,-999.0,72,-99.99,,,0.00,weatherlink.com 1.10,2013-02-01 01:27:00,
2013-01-31 20:42:00,25.8,18.0,30.06,West,261,9.0,-999.0,71,-99.99,,,0.00,weatherlink.com 1.10,2013-02-01 01:42:00,
2013-01-31 20:57:00,25.7,18.0,30.07,West,276,2.0,-999.0,72,-99.99,,,0.00,weatherlink.com 1.10,2013-02-01 01:57:00,
2013-01-31 21:12:00,25.8,18.0,30.08,SW,234,5.0,-999.0,72,-99.99,,,0.00,weatherlink.com 1.10,2013-02-01 02:12:00,
2013-01-31 21:27:00,26.0,18.0,30.07,West,259,7.0,-999.0,72,-99.99,,,0.00,weatherlink.com 1.10,2013-02-01 02:27:00,
2013-01-31 21:42:00,26.1,18.0,30.07,WSW,254,10.0,-999.0,71,-99.99,,,0.00,weatherlink.com 1.10,2013-02-01 02:42:00,
2013-01-31 21:57:00,26.3,18.0,30.07,West,278,7.0,-999.0,71,-99.99,,,0.00,weatherlink.com 1.10,2013-02-01 02:57:00,
2013-01-31 22:12:00,26.6,18.0,30.07,WSW,244,7.0,-999.0,70,-99.99,,,0.00,weatherlink.com 1.10,2013-02-01 03:12:00,
2013-01-31 22:27:00,26.9,18.0,30.07,West,265,2.0,-999.0,70,-99.99,,,0.00,weatherlink.com 1.10,2013-02-01 03:27:00,
2013-01-31 22:42:00,26.9,18.0,30.07,WNW,282,2.0,-999.0,70,-99.99,,,0.00,weatherlink.com 1.10,2013-02-01 03:42:00,
2013-01-31 22:57:00,27.0,18.0,30.07,NW,318,2.0,-999.0,70,-99.99,,,0.00,weatherlink.com 1.10,2013-02-01 03:57:00,
2013-01-31 23:12:00,27.0,19.0,30.05,WSW,248,4.0,-999.0,71,-99.99,,,0.00,weatherlink.com 1.10,2013-02-01 04:12:00,
2013-01-31 23:27:00,27.6,19.0,30.05,SW,216,3.0,-999.0,69,-99.99,,,0.00,weatherlink.com 1.10,2013-02-01 04:27:00,
2013-01-31 23:42:00,27.9,19.0,30.04,West,261,5.0,-999.0,69,-99.99,,,0.00,weatherlink.com 1.10,2013-02-01 04:42:00,
2013-01-31 23:57:00,28.4,19.0,30.05,SW,225,0.0,-999.0,68,-99.99,,,0.00,weatherlink.com 1.10,2013-02-01 04:57:00,